Terug naar catalogus

STARLINK-30525

ActiefCommunicatieVLEO
NORAD 58012·PAYLOAD·🇺🇸 United States

Gelanceerd Oct 5, 2023 vanaf Cape Canaveral Space Force Station

Loading…

Volgende Passages (komende 24 uur)

TLE

VersSource: CelesTrak SupGP

Epoch: Sep 14, 2026, 22:13 UTC

1 58012C 23153X   26257.92618056  .00051547  00000+0  18662-2 0  2572
2 58012  43.0033  78.1644 0001330 272.1781 302.2367 15.27567312    19

Volg STARLINK-30525 in realtime met AllMySat

Download on the App Store